Location: Wroclaw
(51.1100°N, 17.0222°E)
Time: 20:38:36
(UTC+01:00)

ISS - Visible Passes

Search period start: 18 January 2018 00:00
Search period end: 28 January 2018 00:00
Orbit: 402 x 407 km, 51.6° (Epoch: 18 January)

Date Brightness Start Highest point End Pass type
(mag) Time Alt. Az. Time Alt. Az. Time Alt. Az.
26 Jan -1.5 18:55:17 10° SSW 18:56:18 17° SSW 18:56:18 17° SSW visible
27 Jan -2.0 18:03:39 10° S 18:05:53 17° SE 18:06:18 17° SE visible
27 Jan -0.6 19:38:40 10° WSW 19:38:58 12° WSW 19:38:58 12° WSW visible
